This demonstration page uses our WeatherBlox Daily Observations layout. Learn more.

Left ArrowRight Arrow

44.8408, -93.29828

Hourly Observations for April 1, 2016

Temp ( °F °C ) Dew Point ( °F °C ) Humidity (%) Winds ( mph kmh ) Pressure ( in mb ) Visibility ( mi km ) Precip ( " mm )
12:53 am 00:53 Mostly Clear 40 4.4 37 2.8 89 89 Calm 29.68 1005 10 16 0.00 0.00
1:53 am 01:53 Mostly Clear 39 3.9 36 2.2 89 89 WNW 6 9 29.69 1005 10 16 0.00 0.00
2:53 am 02:53 Partly Cloudy 36 2.2 33 0.6 89 89 W 5 7 29.70 1006 10 16 0.00 0.00
3:53 am 03:53 Cloudy 37 2.8 34 1.1 89 89 WNW 6 9 29.70 1006 10 16 0.00 0.00
4:53 am 04:53 Cloudy with Light Rain 39 3.9 33 0.6 79 79 NNW 14 22 29.72 1006 10 16 0.00 0.03
5:53 am 05:53 Cloudy with Light Rain 37 2.8 33 0.6 86 86 N 13 20 29.74 1007 8 13 0.01 0.25
6:01 am 06:01 Cloudy with Light Rain 36 2.2 32 0 86 86 NNW 13 20 29.80 1009 9 14 0.01 0.25
6:53 am 06:53 Cloudy 37 2.8 31 -0.6 79 79 N 13 20 29.76 1008 10 16 0.01 0.25
7:44 am 07:44 Partly Cloudy 36 2 25 -4 65 65 NNW 16 26 29.83 1010 10 16 0.00 0.00
7:53 am 07:53 Mostly Sunny 36 2.2 26 -3.3 67 67 NNW 14 22 29.80 1009 10 16 0.00 0.00
8:53 am 08:53 Sunny 36 2.2 24 -4.4 62 62 NW 15 24 29.83 1010 10 16 0.00 0.00
9:53 am 09:53 Mostly Sunny 37 2.8 21 -6.1 52 52 NW 16 26 29.85 1011 10 16 0.00 0.00
10:53 am 10:53 Mostly Sunny 37 2.8 20 -6.7 50 50 NW 22 35 29.87 1012 10 16 0.00 0.00
11:53 am 11:53 Partly Cloudy 37 2.8 17 -8.3 44 44 NW 23 37 29.88 1012 10 16 0.00 0.00
12:53 pm 12:53 Partly Cloudy 40 4.4 14 -10 35 35 WNW 22 35 29.89 1012 10 16 0.00 0.00
1:53 pm 13:53 Partly Cloudy 39 3.9 14 -10 36 36 NW 20 31 29.89 1012 10 16 0.00 0.00
2:53 pm 14:53 Mostly Sunny 40 4.4 11 -11.7 30 30 NW 20 31 29.88 1012 10 16 0.00 0.00
3:53 pm 15:53 Partly Cloudy 41 5 12 -11.1 30 30 NW 23 37 29.88 1012 10 16 0.00 0.00
4:53 pm 16:53 Partly Cloudy 40 4.4 10 -12.2 29 29 W 16 26 29.88 1012 10 16 0.00 0.00
5:53 pm 17:53 Partly Cloudy 38 3.3 10 -12.2 31 31 W 21 33 29.87 1012 10 16 0.00 0.00
6:53 pm 18:53 Mostly Sunny 36 2.2 9 -12.8 32 32 NW 20 31 29.88 1012 10 16 0.00 0.00
7:53 pm 19:53 Mostly Clear 34 1.1 9 -12.8 35 35 W 16 26 29.88 1012 10 16 0.00 0.00
8:53 pm 20:53 Partly Cloudy 33 0.6 8 -13.3 35 35 W 12 19 29.88 1012 10 16 0.00 0.00
9:53 pm 21:53 Mostly Cloudy 33 0.6 9 -12.8 36 36 WSW 6 9 29.86 1011 10 16 0.00 0.00
10:53 pm 22:53 Cloudy 33 0.6 10 -12.2 38 38 SW 7 11 29.83 1010 10 16 0.00 0.00
11:53 pm 23:53 Cloudy 34 1.1 15 -9.4 46 46 WSW 9 15 29.78 1008 10 16 0.00 0.00

Powered by AerisWeather